Regional Weather Roundup
Issued by NWS

Home | Current Version | Previous Version | Text Only | Print | Product List | Glossary Off
Versions: 1 2 3 4 5 6 7 8 9 10 11 12 13 14 15 16 17 18 19 20 21 22 23 24 25 26 27 28 29 30 31 32 33 34 35 36 37 38 39 40 41 42 43 44 45 46 47 48 49 50

000
ASUS45 KTFX 210119
RWRMT
MONTANA HOURLY WEATHER ROUNDUP
NATIONAL WEATHER SERVICE GREAT FALLS MT
719 PM MDT WED AUG 20 2014

NOTE: "FAIR" INDICATES FEW OR NO CLOUDS BELOW 12000 FEET WITH NO
SIGNIFICANT WEATHER AND/OR OBSTRUCTIONS TO VISIBILITY.

* THESE STATIONS ARE NOT UNDER NWS QUALITY CONTROL. THEY DO NOT
   REPORT WEATHER SUCH AS PRECIPITATION OR FOG.

MTZ001>007-043-210200-
WEST OF THE DIVIDE
CITY           SKY/WX    TMP DP  RH WIND       PRES   REMARKS
KALISPELL      CLOUDY    63  55  75 N7        29.87R
MISSOULA       MOCLDY    75  48  39 NW8       29.84S
BUTTE          CLOUDY    63  48  58 NW3       30.01R
MULLAN PASS    PTCLDY    57  46  67 CALM      30.00R
* ESSEX        N/A       62  45  54 VRB15G24    N/A
* LINCOLN      N/A       70  43  38 S6G15      N/A
* LOOKOUT PASS N/A       62  50  65 N4         N/A
* POLSON       N/A       68  55  63 N/A        N/A
* RONAN APT    PTCLDY    72  52  49 N/A        N/A
* SEELEY LAKE  N/A       74  45  36 NE5G11     N/A
* THOMP F APT  PTCLDY    52  48  86 N5G11      N/A
* YAAK HILL    N/A       65  61  87 N/A        N/A
$$

MTZ008-052>055-210200-
SOUTHWEST MONTANA
CITY           SKY/WX    TMP DP  RH WIND       PRES   REMARKS
BOZEMAN        CLOUDY    66  50  56 SE8       29.93F
DILLON         LGT RAIN  57  48  72 S16G24    29.99R
W YELLOWSTONE  CLOUDY    48  48 100 E6        30.09F
* THREE FORKS  CLOUDY    66  55  68 N/A        N/A
* BOULDER HILL N/A       57  50  78 SE6        N/A
* RAYNOLDS PAS N/A       50  32  50 S12        N/A
* WHITEHALL    N/A       63  59  87 E2G9       N/A
* WISE RIVER   N/A       63  45  52 SW4G9      N/A
$$

MTZ009>010-012-014-046-048-049-054-210200-
EAST SLOPES AND CENTRAL MONTANA
CITY           SKY/WX    TMP DP  RH WIND       PRES   REMARKS
CUT BANK       LGT RAIN  55  52  90 N21       29.92F
GREAT FALLS    CLOUDY    70  48  46 S10       29.85R
HELENA         CLOUDY    73  45  37 S9        29.88S
MALMSTROM AFB  CLOUDY    72  50  46 S12       29.86R
* CONRAD       CLOUDY    66  55  68 N8         N/A
* DEARBORN     N/A       75  47  37 VRB1       N/A
* EAST GLACIER N/A       57  50  78 E9G15      N/A
* MONARCH      N/A       57  46  67 S12G17     N/A
* PENDROY      N/A       66  54  65 NE12       N/A
* ROGERS PASS  N/A       66  41  40 E4G9       N/A
* SAINT MARY   N/A       53  46  77 NE4G19     N/A
* SWEET GRASS  N/A       51  51 100 NW22G27    N/A
* WHITE SULPH  N/A       63  45  52 SE5G16     N/A
$$

MTZ011-013-016-021-035-040-045-047-050-051-210200-
NORTH CENTRAL MONTANA
CITY           SKY/WX    TMP DP  RH WIND       PRES   REMARKS
HAVRE          CLOUDY    68  54  61 NE14      29.82R
LEWISTOWN      CLOUDY    66  50  56 NE8       29.91R
* FORT BENTON  CLOUDY    73  48  41 NE8       29.83R
* CHESTER      N/A       67  55  66 NW8G16     N/A
* DENTON       N/A       69  49  49 SE8        N/A
* GEYSER       N/A       65  49  56 S11G19     N/A
* JUDITH GAP   N/A       63  52  68 N11        N/A
* LOMA         N/A       74  49  41 N18        N/A
$$

MTZ017>020-022>027-061-062-210200-
NORTHEAST MONTANA
CITY           SKY/WX    TMP DP  RH WIND       PRES   REMARKS
GLASGOW        PTCLDY    79  54  42 W6        29.75S
GLENDIVE       CLOUDY    72  61  68 S7        29.80R
JORDAN         PTCLDY    79  52  39 N5        29.79R
SIDNEY         CLOUDY    72  64  76 SW3       29.77R
WOLF POINT     PTCLDY    81  55  41 CALM      29.75S HI  81
* BEAVER HILL  N/A       71  60  68 SE4        N/A
* CIRCLE       N/A       76  58  54 NW3        N/A
* LINDSAY DVD  N/A       75  57  54 W9         N/A
* SACO         N/A       79  54  42 W6         N/A
$$

MTZ028>042-056>058-210200-
SOUTHCENTRAL AND SOUTHEAST MONTANA
CITY           SKY/WX    TMP DP  RH WIND       PRES   REMARKS
BAKER          PTCLDY    72  57  59 NE3       29.82R
BILLINGS       PTCLDY    79  46  31 NE9       29.82S
LIVINGSTON     CLOUDY    63 N/A N/A CALM      29.94F
MILES CITY     PTCLDY    81  50  34 N7        29.79R
* LAUREL APT   MOCLDY    77  46  33 W20G30     N/A
* ROUNDUP APT  MOCLDY    79  43  28 N/A        N/A
* ALZADA       N/A       78  49  36 NW9        N/A
* HYSHAM       N/A       83  45  26 SE3        N/A
* LAME DEER    N/A       74  45  36 N6         N/A
* REED POINT   N/A       62  55  78 W19G24     N/A
* ROSCOE HILL  N/A       65  39  39 NW9G20     N/A
$$

REGIONAL REPORTS...DAKOTAS
CITY           SKY/WX    TMP DP  RH WIND       PRES   REMARKS
WILLISTON      CLOUDY    72  63  73 SE3       29.74S
DICKINSON      MOCLDY    72  63  73 N7        29.75S
BEACH          N/A       66  64  93 NW3       29.80S
CROSBY         FAIR      68  68 100 CALM      29.75S
TIOGA          CLOUDY    66  66 100 CALM      29.79S
WATFORD CITY   HAZE      70  61  73 CALM      29.73F
BISMARCK       LGT RAIN  70  66  87 NW12      29.74R
GRAND FORKS    MOCLDY    79  68  69 SE6       29.77S
FARGO          MOCLDY    79  68  69 E8        29.77R
BUFFALO SD     CLEAR     73  59  62 N12       29.74R
RAPID CITY     PTCLDY    81  55  41 N14       29.76R HI  81
$$

REGIONAL REPORTS...WYOMING/IDAHO/WASHINGTON
CITY           SKY/WX    TMP DP  RH WIND       PRES   REMARKS
GILLETTE       PTCLDY    75  46  36 N8        29.87S
SHERIDAN       MOCLDY    75  48  39 W6        29.87R
CODY           PTCLDY    72  45  38 SE10      29.91S
YELLOWSTONE LA CLOUDY    46  43  89 W13G26    30.20R
SALMON         CLOUDY    64  54  70 S3        29.92F
MULLAN PASS    PTCLDY    57  46  67 CALM      30.00S
SAND POINT     MOCLDY    63  63 100 N3        29.84F
SPOKANE        TSTM      79  48  34 SW9       29.81S
$$

REGIONAL REPORTS...ALBERTA
CITY           SKY/WX    TMP DP  RH WIND       PRES   REMARKS
CALGARY        LGT RAIN  54  50  86 N6        30.00R
LETHBRIDGE     LGT RAIN  59  57  93 NE10      29.92F
MEDICINE HAT   CLOUDY    61  57  87 NE8       29.88R
EDMONTON       PTCLDY    63  45  52 W7        29.96R
WATERTON GATE  N/A       55  50  83 NE5        N/A
CARDSTON       N/A       54  54 100 W3         N/A
MILK RIVER     N/A       55  54  96 NW12       N/A
$$

REGIONAL REPORTS...SASKATCHEWAN
CITY           SKY/WX    TMP DP  RH WIND       PRES   REMARKS
SWIFT CURRENT  CLEAR     72  52  49 N13       29.80R
REGINA         MOCLDY    70  64  81 NW3       29.75S
VAL MARIE      N/A       75  50  42 N9         N/A
ASSINIBOIA     N/A       72  55  55 N10        N/A
CORONACH       N/A       63  59  87 W6         N/A

$$




USA.gov is the U.S. government's official web portal to all federal, state and local government web resources and services.